CAPE
0 0 0 0 0 0 0 0 0 0 0 0 0 0 0 0 0 0 0 0 0 0 0 0 0 0 0 0 0 0 0 0 0 0 0 0 0 0 0 1 0 0 2 3
0 0 0 0 0 0 0 0 0 0 0 0 0 0 0 0 0 0 0 0 0 0 0 0 0 0 0 0 0 0 0 0 0 0 0 0 0 0 0 0 0 0 1 2
0 0 0 0 0 0 0 0 0 0 0 0 0 0 0 0 0 0 0 0 0 0 0 0 0 0 0 0 0 0 0 0 0 0 0 0 0 0 0 0 1 1 1 2
0 0 0 0 0 0 0 0 0 0 0 0 0 0 0 0 0 0 0 0 0 0 0 0 0 0 0 0 0 0 0 0 0 0 0 0 0 1 1 0 1 1 2 2
0 0 0 0 0 0 0 0 0 0 0 0 0 0 0 0 0 0 0 0 0 0 0 0 0 0 0 0 0 0 0 0 0 0 0 0 0 0 0 0 1 0 3 0
0 0 0 0 0 0 0 0 0 0 0 0 0 0 0 0 0 0 0 0 0 0 0 0 0 0 0 0 0 0 0 0 0 0 0 0 0 0 0 0 1 2 3 0
0 0 0 0 0 0 0 0 0 0 0 0 0 0 0 0 0 0 0 0 0 0 0 0 0 0 0 0 0 0 0 0 0 0 0 0 0 0 0 0 0 3 3 1
0 0 0 0 0 0 0 0 0 0 0 0 0 0 0 0 0 0 0 0 0 0 0 0 0 0 0 0 0 0 0 0 0 0 0 0 0 0 0 0 0 0 2 3
0 0 0 0 0 0 0 0 0 0 0 0 0 0 0 0 0 0 0 0 0 0 0 0 0 0 0 0 0 0 0 0 0 0 0 0 0 0 0 0 0 0 0 0
0 0 0 0 0 0 0 0 0 0 0 0 0 0 0 0 0 0 0 0 0 0 0 0 0 0 0 0 0 0 0 0 0 0 0 0 0 0 0 0 0 0 0 0
0 0 0 0 0 0 0 0 0 0 0 0 0 0 0 0 0 0 0 0 0 0 0 0 0 0 0 0 0 0 0 0 0 0 0 0 0 0 0 0 0 0 0 0
0 0 0 0 0 0 0 0 0 0 0 0 0 0 0 0 0 0 0 0 0 0 0 0 0 0 0 0 0 0 0 0 0 0 0 0 0 0 0 0 0 0 0 0
0 0 0 0 0 0 0 0 0 0 0 0 0 0 0 0 0 0 0 0 0 0 0 0 0 0 0 0 0 0 0 0 0 0 0 0 0 0 0 0 0 0 0 0
0 0 0 0 0 0 0 0 0 0 0 0 0 0 0 0 0 0 0 0 0 0 0 0 0 0 0 0 0 0 0 0 0 0 0 0 0 0 1 1 0 0 0 0
0 0 0 0 0 0 0 0 0 0 0 0 0 0 0 0 0 0 0 0 0 0 0 0 0 0 0 0 0 0 0 0 0 0 0 0 0 0 0 1 1 0 0 1
0 0 0 0 0 0 0 0 0 0 0 0 0 0 0 0 0 0 0 0 0 0 0 0 0 0 0 0 0 0 0 0 0 0 0 0 0 0 1 1 1 1 0 0
0 0 0 0 0 0 0 0 0 0 0 0 0 0 0 0 0 0 0 0 0 0 0 0 0 0 0 0 0 0 0 0 0 0 0 0 0 0 0 1 1 1 1 1
0 0 0 0 0 0 0 0 0 0 0 0 0 0 0 0 0 0 0 0 0 0 0 0 0 0 0 0 0 0 0 0 0 0 0 0 0 0 0 0 0 0 0 1
0 0 0 0 0 0 0 0 0 0 0 0 0 0 0 0 0 0 0 0 0 0 0 0 0 0 0 0 0 0 0 0 0 0 0 0 0 0 0 0 0 0 0 0
0 0 0 0 0 0 0 0 0 0 0 0 0 0 0 0 0 0 0 0 0 0 0 0 0 0 0 0 0 0 0 0 0 0 0 0 0 0 0 0 0 0 0 0
0 0 0 0 0 0 0 0 0 0 0 0 0 0 0 0 0 0 0 0 0 0 0 0 0 0 0 0 0 0 0 0 0 0 0 0 0 0 0 0 0 0 0 0
0 0 0 0 0 0 0 0 0 0 0 0 0 0 0 0 0 0 0 0 0 0 0 0 0 0 0 0 0 0 0 0 0 0 0 0 0 0 0 0 0 0 0 0
0 0 0 0 0 0 0 0 0 0 0 0 0 0 0 0 0 0 0 0 0 0 0 0 0 0 0 0 0 0 0 0 0 0 0 0 0 0 0 0 0 0 0 0
0 0 0 0 0 0 0 0 0 0 0 0 0 0 0 0 0 0 0 0 0 0 0 0 0 0 0 0 0 0 0 0 0 0 0 0 0 0 0 0 0 0 0 0
0 0 0 0 0 0 0 0 0 0 0 0 0 0 0 0 0 0 0 0 0 0 0 0 0 0 0 0 0 0 0 0 0 0 0 0 0 0 0 0 0 0 0 0
0 0 0 0 0 0 0 0 0 0 0 0 0 0 0 0 0 0 0 0 0 0 0 0 0 0 0 0 0 0 0 0 0 0 0 0 0 0 0 0 0 0 0 0
CIN
0 0 0 0 0 0 0 0 0 0 0 0 0 0 0 0 0 0 0 0 0 0 0 0 0 0 0 0 0 0 0 0 0 0 0 0 0 0 0 0 0 0 0 0
0 0 0 0 0 0 0 0 0 0 0 0 0 0 0 0 0 0 0 0 0 0 0 0 0 0 0 0 0 0 0 0 0 0 0 0 0 0 0 0 0 0 0 0
0 0 0 0 0 0 0 0 0 0 0 0 0 0 0 0 0 0 0 0 0 0 0 0 0 0 0 0 0 0 0 0 0 0 0 0 0 0 0 0 0 0 0 0
0 0 0 0 0 0 0 0 0 0 0 0 0 0 0 0 0 0 0 0 0 0 0 0 0 0 0 0 0 0 0 0 0 0 0 0 0 0 0 0 0 0 0 0
0 0 0 0 0 0 0 0 0 0 0 0 0 0 0 0 0 0 0 0 0 0 0 0 0 0 0 0 0 0 0 0 0 0 0 0 0 0 0 0 0 0 0 0
0 0 0 0 0 0 0 0 0 0 0 0 0 0 0 0 0 0 0 0 0 0 0 0 0 0 0 0 0 0 0 0 0 0 0 0 0 0 0 0 0 0 0 0
0 0 0 0 0 0 0 0 0 0 0 0 0 0 0 0 0 0 0 0 0 0 0 0 0 0 0 0 0 0 0 0 0 0 0 0 0 0 0 0 0 0 0 0
0 0 0 0 0 0 0 0 0 0 0 0 0 0 0 0 0 0 0 0 0 0 0 0 0 0 0 0 0 0 0 0 0 0 0 0 0 0 0 0 0 0 0 0
0 0 0 0 0 0 0 0 0 0 0 0 0 0 0 0 0 0 0 0 0 0 0 0 0 0 0 0 0 0 0 0 0 0 0 0 0 0 0 0 0 0 0 0
0 0 0 0 0 0 0 0 0 0 0 0 0 0 0 0 0 0 0 0 0 0 0 0 0 0 0 0 0 0 0 0 0 0 0 0 0 0 0 0 0 0 0 0
0 0 0 0 0 0 0 0 0 0 0 0 0 0 0 0 0 0 0 0 0 0 0 0 0 0 0 0 0 0 0 0 0 0 0 0 0 0 0 0 0 0 0 0
0 0 0 0 0 0 0 0 0 0 0 0 0 0 0 0 0 0 0 0 0 0 0 0 0 0 0 0 0 0 0 0 0 0 0 0 0 0 0 0 0 0 0 0
0 0 0 0 0 0 0 0 0 0 0 0 0 0 0 0 0 0 0 0 0 0 0 0 0 0 0 0 0 0 0 0 0 0 0 0 0 0 0 0 0 0 0 0
0 0 0 0 0 0 0 0 0 0 0 0 0 0 0 0 0 0 0 0 0 0 0 0 0 0 0 0 0 0 0 0 0 0 0 0 0 0 0 0 0 0 0 0
0 0 0 0 0 0 0 0 0 0 0 0 0 0 0 0 0 0 0 0 0 0 0 0 0 0 0 0 0 0 0 0 0 0 0 0 0 0 0 0 0 0 0 0
0 0 0 0 0 0 0 0 0 0 0 0 0 0 0 0 0 0 0 0 0 0 0 0 0 0 0 0 0 0 0 0 0 0 0 0 0 0 0 0 0 0 0 0
0 0 0 0 0 0 0 0 0 0 0 0 0 0 0 0 0 0 0 0 0 0 0 0 0 0 0 0 0 0 0 0 0 0 0 0 0 0 0 0 0 0 0 0
0 0 0 0 0 0 0 0 0 0 0 0 0 0 0 0 0 0 0 0 0 0 0 0 0 0 0 0 0 0 0 0 0 0 0 0 0 0 0 0 0 0 0 0
0 0 0 0 0 0 0 0 0 0 0 0 0 0 0 0 0 0 0 0 0 0 0 0 0 0 0 0 0 0 0 0 0 0 0 0 0 0 0 0 0 0 0 0
0 0 0 0 0 0 0 0 0 0 0 0 0 0 0 0 0 0 0 0 0 0 0 0 0 0 0 0 0 0 0 0 0 0 0 0 0 0 0 0 0 0 0 0
0 0 0 0 0 0 0 0 0 0 0 0 0 0 0 0 0 0 0 0 0 0 0 0 0 0 0 0 0 0 0 0 0 0 0 0 0 0 0 0 0 0 0 0
0 0 0 0 0 0 0 0 0 0 0 0 0 0 0 0 0 0 0 0 0 0 0 0 0 0 0 0 0 0 0 0 0 0 0 0 0 0 0 0 0 0 0 0
0 0 0 0 0 0 0 0 0 0 0 0 0 0 0 0 0 0 0 0 0 0 0 0 0 0 0 0 0 0 0 0 0 0 0 0 0 0 0 0 0 0 0 0
0 0 0 0 0 0 0 0 0 0 0 0 0 0 0 0 0 0 0 0 0 0 0 0 0 0 0 0 0 0 0 0 0 0 0 0 0 0 0 0 0 0 0 0
0 0 0 0 0 0 0 0 0 0 0 0 0 0 0 0 0 0 0 0 0 0 0 0 0 0 0 0 0 0 0 0 0 0 0 0 0 0 0 0 0 0 0 0
0 0 0 0 0 0 0 0 0 0 0 0 0 0 0 0 0 0 0 0 0 0 0 0 0 0 0 0 0 0 0 0 0 0 0 0 0 0 0 0 0 0 0 0
Wind_Speed
17 15 14 15 18 17 18 19 22 18 19 27 15 2 4 4 11 12 12 15 19 22 19 17 13 11 12 15 18 20 21 23 25 27 26 22 20 23 23 24 27 30 30 33
14 11 14 16 17 17 19 20 22 21 16 27 26 16 6 12 11 12 12 15 18 21 20 16 14 11 13 16 18 21 23 24 20 25 24 22 23 21 23 23 25 26 28 31
12 13 16 15 16 17 19 20 21 23 27 20 28 17 19 20 15 14 14 16 18 19 20 18 15 12 14 16 19 21 22 24 23 19 23 22 20 20 20 22 23 23 25 26
15 14 14 15 16 18 18 17 22 25 26 23 23 20 18 18 15 13 12 14 15 18 19 19 16 14 14 17 18 21 17 20 24 22 20 19 19 19 20 22 22 22 20 17
12 13 14 14 15 18 18 20 21 22 22 22 20 20 15 18 19 14 12 13 15 17 17 18 17 15 16 18 18 18 19 17 20 20 20 18 18 19 20 20 19 19 17 15
13 15 16 14 15 16 18 19 21 20 20 19 17 20 17 17 18 19 16 15 15 17 17 16 16 17 16 18 18 16 14 12 12 10 13 17 18 18 18 18 17 18 18 12
14 15 17 17 16 15 17 21 23 20 20 18 18 22 12 13 14 15 15 16 16 17 18 19 18 16 16 16 17 16 17 13 14 14 12 13 16 17 17 16 17 18 15 15
16 19 14 17 15 14 18 17 18 22 20 22 20 15 15 15 15 15 15 16 17 17 17 18 17 17 16 17 17 17 16 15 15 15 14 12 15 14 15 15 15 17 17 16
15 16 15 16 16 16 15 17 15 17 19 21 16 17 15 11 12 12 13 14 16 17 18 17 18 17 18 16 17 16 17 14 15 13 12 13 14 14 13 14 15 17 16 16
12 18 16 16 17 16 15 13 17 18 21 20 17 16 13 13 13 12 12 12 15 16 17 17 18 17 17 17 17 17 17 17 13 12 13 11 11 13 13 14 15 15 16 17
13 17 18 17 13 14 14 15 14 16 16 18 20 17 11 12 13 13 12 11 12 13 15 16 17 18 18 18 18 17 17 17 16 13 10 11 11 12 13 14 14 15 15 15
12 17 19 19 17 18 17 16 12 16 17 16 16 16 12 10 13 13 10 9 10 11 12 14 15 18 19 18 18 19 18 18 18 16 14 12 13 14 15 13 14 14 14 15
7 17 21 21 19 19 17 14 12 13 15 13 15 15 15 16 10 8 7 6 5 8 9 11 13 15 18 19 19 18 20 20 18 18 18 17 13 13 14 14 15 12 13 11
11 16 17 21 20 16 17 14 10 11 15 13 6 20 13 10 12 17 6 3 1 2 5 9 12 14 17 18 20 20 20 20 20 20 19 19 17 16 15 16 18 20 19 16
15 18 19 22 22 21 24 24 13 9 11 10 16 17 23 23 33 29 28 15 2 4 6 9 11 13 16 18 19 20 22 21 21 21 21 20 18 17 16 17 19 20 19 19
15 18 20 24 25 26 30 28 19 13 14 15 25 31 26 27 26 30 29 25 5 5 8 10 11 13 14 16 18 19 20 22 23 23 21 20 21 22 18 15 17 19 20 20
13 16 19 24 24 27 31 34 14 17 18 11 8 20 19 28 31 29 29 25 15 6 6 9 12 12 14 15 17 18 19 20 21 22 23 23 22 22 22 22 20 7 10 14
15 17 21 26 23 32 23 23 22 20 24 9 11 24 22 32 33 31 24 13 14 5 5 8 10 11 12 14 15 17 18 19 20 21 21 22 24 24 22 22 23 22 21 21
19 18 23 27 27 34 35 26 23 23 34 19 11 15 30 28 28 28 22 6 8 5 3 5 7 9 10 12 13 14 15 17 18 19 20 20 21 22 23 23 23 22 23 22
20 20 22 23 30 32 20 19 17 20 33 20 11 18 20 20 25 22 23 21 8 9 5 3 4 6 8 10 11 12 12 13 15 16 17 18 19 20 21 21 21 21 21 22
23 25 25 26 33 33 21 15 16 27 25 16 16 19 19 22 20 22 23 21 16 7 7 4 2 3 6 7 8 8 8 10 11 12 13 14 15 17 17 18 18 19 18 18
25 23 26 26 29 39 15 15 18 22 18 16 17 19 21 22 25 23 21 20 15 7 6 5 3 3 2 4 5 5 6 5 6 7 9 10 11 12 12 12 13 13 13 13
32 27 26 23 25 25 9 13 7 14 18 19 20 21 20 19 19 20 20 18 13 7 7 7 5 6 3 1 4 3 3 4 4 4 5 6 7 8 9 9 9 10 10 9
36 28 31 27 33 29 22 16 21 20 20 23 20 20 16 19 20 20 19 16 13 9 7 8 7 5 4 3 1 2 5 3 3 3 4 5 5 7 7 8 7 7 7 8
31 23 28 33 34 32 33 27 24 21 18 26 25 20 18 19 20 21 18 16 15 14 13 11 7 7 7 7 6 6 9 7 6 6 7 6 7 8 9 10 9 9 9 10
30 29 29 35 28 29 31 29 26 23 19 16 23 25 22 16 15 18 19 19 17 16 15 13 12 11 11 10 9 10 10 9 10 10 11 11 11 11 12 13 16 16 17 17
Wind_Direction
332 346 357 354 340 339 340 338 332 347 348 329 8 313 269 4 22 24 26 22 24 21 25 33 38 43 37 27 20 14 10 3 342 310 308 321 308 287 283 279 272 263 264 257
345 3 353 349 341 340 336 337 333 337 353 329 334 259 24 33 37 37 35 29 27 26 28 32 38 44 34 26 21 15 8 360 8 325 305 309 263 275 265 263 262 261 265 259
356 2 347 356 350 347 340 336 335 334 332 342 323 3 10 21 36 40 39 35 33 29 29 33 39 43 36 30 23 20 15 5 356 7 310 293 287 274 268 264 261 265 267 260
350 355 360 356 354 348 343 343 333 332 335 336 341 349 9 22 35 41 39 36 36 34 34 36 38 42 39 33 32 28 37 27 353 350 338 303 278 267 269 265 258 261 268 253
359 2 0 357 353 346 346 339 337 337 340 338 340 346 16 20 28 39 40 44 41 39 38 36 39 45 45 40 39 41 41 48 34 5 317 302 277 271 268 269 265 250 244 251
356 351 351 360 355 352 346 344 342 344 345 345 347 347 2 19 27 32 44 48 47 44 43 43 45 48 49 47 47 55 65 85 89 135 225 282 280 272 274 274 256 238 246 261
350 347 345 346 352 355 353 345 337 341 344 346 346 337 8 30 34 42 47 49 52 49 47 42 45 47 53 53 53 60 65 84 96 108 143 202 257 266 274 263 249 241 252 252
333 331 349 344 348 359 350 353 347 335 343 336 344 349 0 18 37 48 52 54 54 51 50 47 52 55 59 59 61 63 75 83 95 99 119 159 183 242 278 266 269 244 249 234
337 336 342 341 340 346 357 347 -0 349 346 341 352 347 358 30 45 61 59 58 54 54 54 52 55 62 63 67 66 70 74 92 94 120 136 159 172 191 221 247 250 268 259 248
339 332 332 332 333 338 344 356 346 347 332 341 354 353 0 15 33 55 59 64 59 59 57 58 58 65 70 71 73 76 79 83 111 122 128 157 186 186 232 240 246 266 261 251
331 327 328 326 330 333 334 335 344 342 340 337 339 352 24 13 18 36 56 63 66 64 60 61 62 66 74 77 77 81 83 88 97 119 136 141 170 202 228 252 261 248 258 261
327 326 319 321 320 320 320 324 334 327 329 334 341 346 10 19 2 19 44 52 55 62 63 66 69 66 70 80 82 82 88 93 93 103 123 144 150 149 158 201 243 274 285 275
338 322 319 320 320 314 314 319 327 332 333 329 335 344 353 341 358 12 20 28 46 54 62 74 76 75 73 77 84 92 89 91 97 101 103 113 138 156 164 175 163 227 245 264
318 318 314 308 311 318 312 319 323 324 322 328 289 241 266 254 264 245 239 247 211 92 82 91 92 88 78 81 84 90 97 96 94 95 101 104 113 125 140 153 157 151 156 176
311 311 309 307 304 302 298 298 301 283 297 300 241 236 247 251 270 260 259 222 50 160 139 122 108 99 88 83 87 88 91 96 96 99 98 100 112 122 131 139 147 156 168 169
303 308 312 304 303 299 293 292 294 284 295 237 236 248 246 250 253 284 285 302 28 79 126 125 120 108 104 95 90 93 94 91 91 93 100 105 106 105 126 144 147 152 159 168
287 302 307 304 307 304 295 284 278 292 299 291 250 230 257 251 286 300 293 301 333 35 90 121 124 117 112 106 95 94 96 95 94 93 92 100 107 109 111 117 133 195 191 181
278 293 299 300 304 290 303 304 306 298 296 261 252 236 236 258 282 285 302 259 325 24 82 108 119 113 112 106 100 91 93 93 95 101 100 98 94 101 115 117 119 126 134 142
280 284 292 292 290 290 290 299 301 298 286 296 247 219 271 296 300 293 306 185 172 355 65 86 100 104 104 110 103 93 90 91 93 95 100 105 101 98 103 106 113 121 123 131
274 277 279 286 287 287 300 306 309 310 291 311 314 307 313 326 309 318 305 304 304 314 338 50 63 76 102 111 106 100 94 92 95 92 91 99 104 100 104 104 107 111 113 103
263 269 265 273 279 284 297 300 308 293 297 321 322 315 317 311 318 312 308 304 298 303 316 336 33 74 108 105 109 107 96 103 96 87 78 70 83 94 97 84 90 92 79 81
257 259 267 273 276 280 295 295 284 294 307 315 318 318 320 314 304 306 304 306 310 304 308 312 323 341 42 99 104 100 111 80 63 69 77 73 71 68 61 60 57 54 45 40
259 261 266 258 274 285 284 291 282 312 307 305 305 309 323 329 327 311 302 311 322 315 303 307 309 307 322 99 121 94 80 14 31 42 47 49 38 37 50 49 39 22 24 25
261 261 267 269 266 271 281 280 289 299 300 298 304 310 315 319 319 318 313 307 311 315 309 308 307 302 294 294 235 327 333 357 6 6 6 356 359 357 1 4 11 13 10 7
261 252 259 268 270 276 278 280 282 287 285 289 292 298 306 312 311 307 312 311 306 299 299 301 301 297 293 293 292 298 305 309 311 317 320 324 325 324 325 326 331 333 332 333
256 260 256 267 272 275 279 285 288 285 286 289 284 287 295 306 311 306 302 303 305 300 298 296 294 295 295 294 292 291 290 292 295 299 302 306 310 311 312 313 312 310 310 311